Total_Precipitation_Accumulation
0.00 0.00 0.02 0.00 0.00 0.00 0.00 0.02 0.03 0.04 0.04 0.07 0.09 0.04 0.01 0.01 0.00 0.00 0.00 0.00 0.00 0.00 0.00 0.00 0.00 0.00 0.00 0.00 0.02 0.01 0.00 0.00 0.00 0.00 0.01 0.00 0.03 0.08 0.09 0.04 0.03 0.01 0.01
0.00 0.00 0.00 0.00 0.00 0.00 0.00 0.00 0.01 0.01 0.01 0.03 0.04 0.02 0.00 0.00 0.00 0.00 0.00 0.00 0.00 0.00 0.00 0.00 0.00 0.00 0.00 0.01 0.04 0.03 0.01 0.00 0.00 0.00 0.00 0.02 0.05 0.07 0.06 0.03 0.00 0.01 0.01
0.00 0.00 0.00 0.00 0.00 0.00 0.00 0.00 0.00 0.00 0.00 0.00 0.01 0.00 0.00 0.00 0.00 0.00 0.00 0.00 0.00 0.00 0.00 0.00 0.00 0.00 0.01 0.03 0.04 0.03 0.01 0.00 0.01 0.00 0.01 0.01 0.03 0.04 0.02 0.01 0.01 0.00 0.00
0.00 0.00 0.00 0.01 0.00 0.00 0.00 0.00 0.00 0.00 0.00 0.00 0.00 0.00 0.00 0.00 0.00 0.00 0.00 0.00 0.00 0.00 0.00 0.00 0.00 0.04 0.12 0.06 0.04 0.12 0.17 0.15 0.06 0.01 0.00 0.00 0.01 0.01 0.00 0.03 0.04 0.02 0.00
0.00 0.00 0.00 0.00 0.00 0.00 0.00 0.00 0.00 0.00 0.00 0.00 0.00 0.00 0.00 0.00 0.00 0.00 0.00 0.00 0.00 0.01 0.04 0.00 0.00 0.01 0.03 0.10 0.05 0.06 0.06 0.11 0.17 0.03 0.02 0.02 0.02 0.04 0.02 0.12 0.09 0.05 0.02
0.00 0.00 0.00 0.00 0.00 0.00 0.00 0.00 0.00 0.00 0.00 0.00 0.00 0.00 0.00 0.00 0.00 0.00 0.00 0.00 0.05 0.12 0.07 0.00 0.00 0.02 0.04 0.09 0.08 0.09 0.09 0.09 0.13 0.08 0.00 0.09 0.19 0.12 0.02 0.04 0.04 0.04 0.06
0.00 0.00 0.00 0.01 0.01 0.01 0.00 0.00 0.00 0.00 0.00 0.00 0.00 0.00 0.00 0.00 0.00 0.00 0.00 0.00 0.05 0.04 0.01 0.00 0.00 0.05 0.11 0.11 0.08 0.07 0.16 0.29 0.14 0.01 0.00 0.00 0.04 0.16 0.02 0.00 0.02 0.02 0.01
0.00 0.00 0.00 0.01 0.01 0.01 0.01 0.01 0.01 0.01 0.00 0.00 0.00 0.00 0.00 0.00 0.00 0.00 0.00 0.00 0.03 0.02 0.00 0.01 0.02 0.04 0.08 0.12 0.10 0.07 0.16 0.24 0.23 0.11 0.00 0.00 0.01 0.12 0.06 0.02 0.01 0.00 0.00
0.00 0.00 0.00 0.00 0.02 0.02 0.01 0.01 0.02 0.01 0.01 0.00 0.00 0.00 0.00 0.00 0.00 0.00 0.00 0.01 0.02 0.03 0.03 0.11 0.07 0.05 0.09 0.09 0.13 0.08 0.04 0.18 0.15 0.04 0.01 0.00 0.02 0.03 0.08 0.04 0.03 0.02 0.02
0.03 0.00 0.00 0.01 0.03 0.06 0.03 0.03 0.02 0.01 0.01 0.01 0.01 0.00 0.03 0.05 0.05 0.03 0.03 0.06 0.04 0.01 0.14 0.13 0.16 0.17 0.12 0.09 0.10 0.14 0.14 0.08 0.19 0.04 0.04 0.00 0.00 0.02 0.13 0.07 0.11 0.09 0.10
0.06 0.02 0.02 0.00 0.09 0.09 0.05 0.04 0.02 0.01 0.03 0.02 0.02 0.03 0.05 0.02 0.01 0.05 0.18 0.16 0.16 0.30 0.36 0.35 0.35 0.27 0.11 0.05 0.04 0.06 0.11 0.03 0.04 0.02 0.00 0.00 0.00 0.00 0.02 0.02 0.18 0.23 0.27
0.00 0.00 0.03 0.05 0.05 0.01 0.03 0.07 0.05 0.02 0.01 0.02 0.08 0.04 0.01 0.01 0.01 0.06 0.10 0.14 0.36 0.47 0.38 0.50 0.42 0.24 0.06 0.01 0.02 0.02 0.01 0.02 0.00 0.02 0.02 0.00 0.00 0.00 0.00 0.02 0.05 0.12 0.16
0.00 0.00 0.00 0.00 0.00 0.00 0.00 0.03 0.03 0.00 0.00 0.01 0.06 0.05 0.03 0.00 0.00 0.03 0.02 0.15 0.42 0.26 0.17 0.19 0.27 0.18 0.07 0.00 0.01 0.01 0.04 0.01 0.01 0.00 0.01 0.00 0.01 0.01 0.00 0.01 0.05 0.07 0.09
0.01 0.00 0.00 0.00 0.00 0.00 0.00 0.01 0.04 0.00 0.00 0.00 0.00 0.00 0.00 0.00 0.00 0.00 0.01 0.22 0.26 0.07 0.03 0.12 0.32 0.18 0.04 0.05 0.02 0.04 0.05 0.01 0.04 0.02 0.00 0.00 0.00 0.00 0.00 0.00 0.03 0.08 0.10
0.00 0.00 0.00 0.00 0.00 0.00 0.01 0.00 0.00 0.00 0.00 0.00 0.00 0.00 0.00 0.00 0.00 0.00 0.01 0.24 0.25 0.01 0.01 0.17 0.35 0.12 0.02 0.01 0.00 0.01 0.02 0.02 0.00 0.00 0.00 0.02 0.00 0.01 0.01 0.02 0.01 0.11 0.12
0.00 0.00 0.00 0.00 0.00 0.00 0.02 0.00 0.00 0.00 0.00 0.00 0.00 0.00 0.00 0.00 0.00 0.02 0.02 0.04 0.08 0.05 0.01 0.05 0.21 0.26 0.08 0.02 0.01 0.02 0.00 0.00 0.00 0.00 0.00 0.00 0.02 0.03 0.04 0.07 0.09 0.11 0.08
0.00 0.00 0.00 0.00 0.00 0.00 0.00 0.00 0.00 0.00 0.00 0.00 0.00 0.00 0.00 0.00 0.01 0.01 0.00 0.00 0.00 0.01 0.02 0.05 0.09 0.21 0.13 0.02 0.01 0.02 0.00 0.00 0.00 0.00 0.00 0.00 0.00 0.03 0.04 0.09 0.13 0.11 0.07
0.00 0.00 0.00 0.00 0.00 0.00 0.00 0.00 0.00 0.00 0.00 0.00 0.00 0.00 0.00 0.00 0.00 0.00 0.00 0.00 0.01 0.01 0.04 0.03 0.03 0.28 0.26 0.15 0.02 0.01 0.01 0.01 0.00 0.00 0.00 0.01 0.06 0.02 0.01 0.08 0.11 0.08 0.03
0.01 0.01 0.00 0.00 0.00 0.00 0.00 0.00 0.00 0.00 0.00 0.00 0.00 0.00 0.00 0.00 0.00 0.00 0.00 0.00 0.00 0.01 0.04 0.04 0.00 0.11 0.15 0.11 0.10 0.14 0.03 0.01 0.00 0.00 0.01 0.02 0.04 0.03 0.02 0.00 0.03 0.06 0.01
0.01 0.01 0.01 0.00 0.00 0.00 0.02 0.00 0.00 0.00 0.00 0.00 0.00 0.00 0.00 0.00 0.00 0.00 0.00 0.00 0.00 0.00 0.06 0.04 0.01 0.00 0.00 0.00 0.00 0.02 0.02 0.00 0.01 0.00 0.00 0.03 0.01 0.00 0.01 0.00 0.00 0.00 0.08
0.01 0.00 0.00 0.00 0.00 0.00 0.00 0.00 0.00 0.00 0.00 0.00 0.01 0.00 0.00 0.00 0.00 0.00 0.00 0.00 0.00 0.00 0.09 0.11 0.00 0.00 0.00 0.01 0.08 0.05 0.06 0.03 0.00 0.01 0.00 0.00 0.00 0.00 0.00 0.00 0.01 0.01 0.02
0.00 0.00 0.00 0.00 0.00 0.00 0.00 0.00 0.00 0.00 0.01 0.00 0.01 0.01 0.00 0.00 0.00 0.00 0.00 0.00 0.00 0.00 0.02 0.03 0.03 0.01 0.00 0.00 0.04 0.05 0.00 0.04 0.00 0.01 0.00 0.00 0.01 0.00 0.00 0.00 0.00 0.00 0.00
0.00 0.00 0.00 0.00 0.00 0.00 0.00 0.00 0.00 0.05 0.08 0.05 0.08 0.05 0.01 0.00 0.00 0.00 0.00 0.00 0.00 0.00 0.00 0.00 0.04 0.04 0.00 0.00 0.00 0.05 0.14 0.19 0.00 0.02 0.00 0.00 0.01 0.00 0.00 0.00 0.00 0.00 0.01
0.00 0.00 0.00 0.00 0.00 0.00 0.00 0.00 0.00 0.11 0.08 0.00 0.00 0.00 0.01 0.00 0.03 0.01 0.00 0.00 0.00 0.00 0.00 0.00 0.00 0.02 0.00 0.00 0.05 0.00 0.03 0.07 0.02 0.06 0.00 0.00 0.00 0.00 0.00 0.00 0.00 0.00 0.00
0.02 0.01 0.00 0.00 0.00 0.00 0.00 0.00 0.00 0.14 0.03 0.01 0.00 0.03 0.14 0.00 0.00 0.01 0.00 0.00 0.00 0.00 0.00 0.00 0.00 0.02 0.01 0.00 0.04 0.00 0.01 0.01 0.00 0.00 0.01 0.00 0.00 0.00 0.00 0.00 0.00 0.01 0.03
0.00 0.02 0.02 0.00 0.00 0.00 0.00 0.00 0.00 0.00 0.00 0.00 0.04 0.11 0.06 0.00 0.00 0.00 0.03 0.04 0.16 0.06 0.00 0.00 0.00 0.04 0.02 0.00 0.00 0.00 0.00 0.04 0.03 0.00 0.00 0.00 0.00 0.00 0.00 0.00 0.00 0.03 0.05